Wind_Speed
2 2 3 3 3 3 3 2 2 2 2 2 2 3 3 3 3 4 5 5 5 5 6 6 6 7 7 7 7 8 8 9 9 10 10 10 10 9 9 9 9 9 9
3 4 3 4 4 3 3 3 3 3 4 4 4 3 3 3 4 4 5 5 5 6 6 6 6 7 8 8 8 8 8 8 9 9 10 10 10 10 10 10 10 10 10
3 3 3 4 4 4 4 4 4 4 5 5 5 5 4 4 5 5 6 7 7 8 8 8 8 8 8 8 8 8 9 9 9 9 10 10 10 10 10 11 11 12 11
4 4 4 4 4 5 5 5 5 5 5 6 6 6 6 6 6 7 7 8 9 9 9 9 9 9 10 10 10 10 10 10 11 11 12 12 12 12 12 12 13 13 13
5 5 5 5 5 6 6 6 7 7 6 6 6 7 8 8 7 8 8 9 9 10 10 10 10 11 10 10 11 11 12 12 12 12 12 13 13 13 14 14 14 14 15
6 6 6 6 6 7 8 8 8 8 8 8 8 8 9 9 9 9 9 9 10 10 11 11 12 12 12 12 12 12 13 14 14 13 13 14 14 14 14 15 15 16 16
6 7 7 7 8 8 9 9 9 9 9 9 9 10 10 10 10 11 11 11 12 12 12 12 12 13 13 13 13 14 14 14 14 14 14 14 14 15 15 15 15 15 16
8 8 8 8 9 9 9 9 9 10 10 11 11 11 12 12 12 12 12 13 13 12 12 12 13 13 13 14 14 14 15 15 14 15 15 15 15 16 16 15 15 15 16
9 10 10 10 10 10 11 10 10 11 11 12 12 12 13 13 14 14 14 14 14 13 13 13 14 15 15 15 15 15 15 16 16 16 16 16 16 16 16 16 16 16 16
11 11 11 12 11 11 12 12 12 12 12 13 13 13 14 14 14 15 16 15 14 14 15 15 16 16 16 16 15 16 16 16 16 17 17 17 17 17 17 17 17 17 17
12 13 13 13 13 13 13 13 14 14 14 14 15 15 15 15 15 16 16 15 15 15 15 16 16 16 16 16 16 17 17 17 17 18 18 17 18 18 18 18 18 18 17
14 14 14 15 15 15 15 15 15 15 15 16 16 16 16 16 16 16 16 16 16 16 16 16 17 17 17 17 17 18 18 18 18 18 18 18 18 18 18 17 18 18 18
15 15 15 16 16 16 16 16 16 16 16 16 16 17 17 16 17 17 17 18 17 17 18 18 18 18 18 18 19 19 19 19 19 19 18 18 17 17 18 18 18 18 18
16 16 16 16 16 17 17 17 17 17 17 18 18 18 18 18 18 18 18 18 18 19 19 19 19 19 20 20 20 20 19 19 20 19 19 18 18 18 18 19 19 19 18
17 17 17 17 17 18 19 19 19 19 19 19 19 19 19 20 20 19 19 19 20 20 20 20 20 20 21 21 20 20 20 20 20 20 19 19 18 18 18 18 18 18 17
18 19 19 19 19 19 20 20 20 20 20 20 20 20 20 21 21 20 21 21 21 21 20 20 20 21 22 21 21 21 20 20 20 20 19 19 18 18 18 18 17 18 18
19 19 20 20 20 21 21 21 21 21 22 21 21 21 21 22 21 21 22 22 23 22 21 20 21 22 22 22 22 21 21 21 21 20 20 19 18 18 18 18 18 18 18
20 20 21 21 21 21 21 21 22 22 22 22 22 23 23 23 23 23 23 23 23 23 22 22 22 22 23 23 22 22 22 21 21 21 20 20 20 19 20 19 18 18 18
20 21 22 22 22 22 22 22 22 23 23 23 23 23 23 23 24 24 24 24 24 24 24 24 24 24 23 23 23 22 22 22 22 21 21 20 20 20 20 20 19 19 19
21 22 22 22 22 23 23 23 23 24 24 24 25 24 25 25 25 25 25 25 24 24 24 25 25 24 24 24 23 23 23 23 23 22 21 21 21 20 20 20 21 21 21
21 21 21 22 22 23 23 23 23 24 24 25 25 25 25 25 25 25 25 25 25 24 24 24 25 24 25 25 25 24 23 23 22 22 22 22 22 22 21 20 20 20 21
20 20 21 21 22 23 23 23 24 25 26 25 25 25 25 25 25 25 25 25 24 25 25 26 26 25 25 25 25 25 25 23 22 23 24 24 24 23 22 22 21 20 20
21 21 21 21 22 22 23 23 24 24 24 24 24 25 25 25 25 25 25 25 26 26 26 26 27 27 27 26 26 26 25 24 23 24 24 25 25 24 23 23 22 21 21
21 21 21 21 22 22 23 23 24 23 23 24 24 24 24 24 24 24 25 25 26 26 26 27 27 26 26 26 26 26 25 24 24 24 24 24 25 24 23 23 22 22 21
21 21 22 22 22 22 23 23 24 24 23 24 23 24 24 24 25 25 26 26 27 27 27 26 26 25 25 25 26 26 26 25 24 24 24 24 24 24 24 23 22 22 21
22 22 23 23 23 23 23 23 23 24 24 24 24 24 24 25 26 26 27 27 26 26 26 25 25 25 25 25 25 26 26 26 24 24 24 24 24 24 23 24 23 23 22
Wind_Direction
251 242 245 230 221 219 232 248 260 276 280 267 268 279 281 272 264 251 243 242 240 248 252 252 257 258 259 265 274 278 275 269 269 265 261 261 262 259 260 259 260 260 260
258 255 248 238 235 234 243 253 263 270 281 284 281 277 271 264 262 252 245 247 249 251 255 257 259 265 264 267 271 279 279 275 275 269 263 261 261 261 262 264 260 259 256
254 256 251 242 241 246 251 256 265 273 280 285 285 278 276 271 267 262 258 259 259 258 258 259 262 263 267 271 269 274 276 277 276 271 266 262 260 262 265 265 263 260 255
266 268 259 259 260 254 258 261 270 277 279 283 278 275 277 277 269 269 268 263 263 264 266 265 266 265 268 269 273 273 274 276 277 272 265 260 261 261 263 264 264 262 259
275 274 269 268 271 270 269 265 267 274 279 282 279 276 277 277 277 269 268 267 265 266 267 268 269 269 268 268 272 273 275 275 279 277 271 264 260 261 262 263 264 264 261
275 272 270 271 272 271 271 271 273 277 279 280 280 279 276 274 278 277 274 272 268 267 268 267 267 270 271 271 272 275 277 278 275 278 275 272 263 263 265 265 264 263 263
271 272 274 270 271 271 271 272 271 272 274 277 279 278 278 274 276 278 279 280 276 272 271 268 269 272 271 271 271 274 277 276 273 275 275 275 269 264 265 265 264 263 262
274 273 275 273 271 271 271 272 273 272 275 277 278 278 278 278 276 279 278 280 277 271 270 270 271 271 273 272 272 275 277 275 274 275 275 274 270 266 265 264 267 267 265
276 278 277 276 275 274 272 275 275 275 277 278 278 277 278 278 278 279 280 281 278 272 271 271 272 273 274 275 274 275 276 275 274 275 275 275 273 270 269 267 268 270 268
279 278 278 277 276 275 275 276 277 278 278 279 279 278 280 281 277 277 279 281 278 275 274 276 276 276 275 275 275 277 276 276 275 275 275 274 274 273 271 270 269 268 268
282 280 278 276 277 276 276 276 276 277 278 278 278 278 278 280 280 279 280 283 281 279 276 275 275 275 275 275 276 278 278 277 275 275 276 274 273 273 273 271 269 268 268
280 281 279 280 280 278 277 277 276 277 277 277 277 277 277 275 278 282 281 280 281 282 281 280 278 274 275 276 278 278 279 278 278 277 277 276 274 273 273 273 271 269 269
281 281 279 280 281 280 278 278 276 276 276 276 276 277 277 276 277 279 281 278 277 281 283 282 278 274 274 277 279 279 280 280 280 280 279 277 275 274 272 272 272 271 271
282 282 282 282 281 280 278 278 277 275 275 274 275 276 277 278 277 278 280 278 278 282 284 282 279 275 276 276 278 279 278 278 278 278 278 277 276 276 273 270 270 269 269
281 281 282 281 281 280 278 277 276 275 274 274 275 276 276 277 276 277 276 277 278 281 283 280 277 276 276 276 277 277 276 277 279 277 275 275 276 274 273 271 269 269 268
280 279 280 280 280 278 277 276 275 273 273 274 274 274 275 275 274 275 275 277 277 280 283 279 274 274 276 276 276 275 276 277 278 278 275 275 275 273 270 270 270 269 265
281 280 279 279 279 277 276 275 274 273 273 273 273 273 275 275 275 275 275 276 277 278 280 279 277 274 274 275 275 275 275 275 275 275 277 276 274 271 270 270 271 270 266
282 281 280 278 277 277 275 274 273 274 273 274 275 274 274 275 274 275 276 277 279 278 278 278 278 276 275 275 275 275 275 275 274 274 274 274 274 270 269 270 270 268 266
284 282 282 279 277 276 275 274 274 274 274 274 274 274 274 274 274 275 276 278 279 279 277 276 276 275 275 274 274 274 275 275 273 272 273 273 274 270 268 269 269 268 265
285 284 282 280 278 277 276 276 275 274 275 275 275 275 275 275 275 275 276 277 277 278 277 276 275 274 273 272 272 273 272 272 272 269 272 273 273 271 269 268 268 267 265
287 285 283 281 278 277 276 276 276 276 276 276 275 275 276 276 276 276 276 277 276 276 276 276 276 274 272 273 272 271 271 271 272 270 271 271 271 268 267 268 269 269 268
289 287 285 283 280 278 277 277 276 276 276 275 275 275 275 275 275 277 276 275 276 277 276 275 275 273 271 270 270 271 270 270 270 270 270 269 267 265 265 267 268 268 269
286 286 285 283 282 280 279 280 280 279 277 276 275 275 274 274 275 275 275 276 277 277 277 277 275 273 271 268 268 269 269 268 269 269 269 269 267 268 267 268 269 269 268
286 287 287 286 284 282 280 280 280 281 280 278 277 277 276 277 277 276 276 276 276 277 277 277 276 275 272 269 267 267 267 268 268 268 268 269 268 268 269 270 270 271 269
287 288 288 287 285 283 281 280 280 281 281 279 278 278 277 277 276 276 277 278 279 280 279 279 277 277 275 273 272 269 268 267 267 268 268 268 267 267 268 268 269 270 268
287 286 286 286 286 284 282 281 281 281 280 279 279 279 279 278 277 277 278 278 278 279 278 278 277 276 275 274 274 272 270 266 267 267 267 266 266 265 266 267 268 269 269
Height
5886 5885 5885 5885 5885 5885 5885 5885 5885 5884 5884 5884 5883 5883 5883 5883 5883 5883 5883 5883 5883 5883 5884 5884 5884 5883 5883 5883 5883 5883 5882 5882 5882 5882 5882 5882 5882 5882 5882 5883 5882 5882 5882
5885 5885 5885 5885 5885 5885 5884 5884 5884 5884 5884 5883 5883 5883 5883 5883 5882 5882 5882 5882 5882 5882 5882 5882 5882 5882 5881 5881 5881 5881 5881 5880 5880 5880 5880 5880 5880 5880 5880 5880 5880 5880 5880
5885 5885 5884 5884 5884 5884 5884 5884 5884 5883 5883 5883 5882 5882 5882 5882 5881 5881 5881 5880 5880 5880 5880 5880 5880 5880 5880 5879 5879 5879 5879 5878 5878 5878 5878 5878 5878 5878 5878 5878 5878 5878 5878
5885 5884 5884 5884 5883 5883 5883 5883 5882 5882 5882 5881 5881 5881 5880 5880 5880 5879 5879 5879 5879 5878 5878 5878 5878 5878 5878 5877 5877 5877 5876 5876 5876 5875 5875 5875 5875 5875 5875 5875 5875 5875 5875
5883 5883 5883 5882 5882 5882 5882 5881 5881 5881 5880 5880 5879 5879 5879 5878 5878 5878 5877 5877 5877 5876 5876 5876 5876 5875 5875 5875 5875 5874 5874 5874 5873 5873 5872 5872 5872 5872 5872 5872 5872 5872 5872
5882 5882 5881 5881 5881 5881 5880 5879 5879 5879 5878 5878 5877 5877 5877 5877 5876 5876 5875 5875 5874 5874 5874 5873 5873 5873 5873 5872 5872 5872 5871 5871 5870 5869 5869 5869 5868 5868 5868 5868 5868 5868 5868
5880 5880 5879 5879 5879 5879 5878 5877 5877 5877 5876 5876 5876 5875 5875 5875 5874 5874 5873 5873 5872 5871 5871 5870 5870 5870 5869 5869 5869 5869 5868 5867 5867 5866 5866 5865 5865 5864 5864 5864 5864 5864 5864
5878 5877 5877 5877 5876 5876 5875 5875 5875 5874 5874 5873 5873 5873 5873 5873 5872 5871 5870 5870 5869 5868 5868 5867 5867 5867 5866 5866 5866 5865 5865 5864 5863 5863 5862 5861 5861 5860 5860 5860 5860 5860 5860
5876 5875 5874 5874 5874 5873 5873 5872 5872 5872 5871 5871 5870 5870 5869 5869 5868 5868 5867 5866 5866 5865 5865 5864 5864 5864 5863 5862 5862 5861 5861 5860 5859 5858 5858 5857 5857 5856 5856 5856 5855 5855 5855
5873 5872 5872 5871 5870 5870 5870 5869 5869 5868 5868 5867 5867 5866 5866 5865 5865 5864 5864 5863 5862 5862 5862 5861 5861 5860 5859 5859 5858 5857 5857 5856 5855 5854 5853 5853 5852 5852 5852 5851 5851 5851 5851
5869 5869 5868 5867 5867 5867 5866 5866 5865 5865 5864 5864 5863 5862 5862 5861 5861 5860 5860 5859 5859 5858 5858 5857 5857 5856 5855 5854 5854 5853 5852 5852 5851 5850 5849 5848 5848 5847 5847 5847 5846 5846 5846
5866 5865 5864 5863 5863 5862 5862 5861 5861 5861 5860 5859 5859 5858 5857 5857 5857 5856 5856 5855 5854 5854 5853 5853 5852 5851 5851 5850 5849 5849 5848 5847 5846 5845 5845 5844 5843 5843 5842 5842 5842 5842 5842
5862 5861 5860 5859 5858 5858 5857 5857 5856 5856 5855 5855 5854 5853 5852 5852 5852 5851 5851 5850 5850 5849 5848 5848 5847 5847 5846 5845 5845 5844 5843 5842 5842 5841 5840 5840 5839 5838 5838 5837 5837 5837 5836
5857 5856 5855 5854 5853 5853 5852 5852 5851 5851 5850 5850 5849 5849 5848 5848 5847 5846 5846 5845 5845 5844 5843 5843 5842 5841 5841 5840 5839 5839 5838 5838 5837 5836 5836 5835 5834 5834 5833 5833 5832 5832 5831
5853 5852 5851 5850 5849 5848 5847 5846 5846 5845 5845 5844 5844 5843 5843 5843 5842 5841 5841 5840 5840 5839 5838 5837 5836 5836 5835 5835 5834 5834 5833 5833 5832 5831 5831 5830 5829 5829 5828 5828 5827 5827 5827
5848 5847 5846 5844 5843 5842 5841 5840 5840 5839 5839 5839 5838 5838 5837 5837 5836 5836 5835 5834 5834 5833 5832 5831 5831 5830 5829 5829 5829 5828 5828 5827 5827 5826 5825 5825 5824 5824 5823 5823 5822 5822 5822
5842 5841 5840 5839 5837 5836 5835 5834 5834 5833 5833 5832 5832 5832 5831 5831 5830 5829 5829 5828 5827 5827 5826 5825 5825 5824 5824 5823 5823 5822 5822 5822 5821 5821 5820 5820 5819 5819 5818 5818 5818 5817 5817
5837 5835 5834 5832 5831 5830 5829 5828 5827 5826 5826 5826 5825 5825 5824 5824 5823 5823 5822 5822 5821 5820 5820 5819 5819 5818 5817 5817 5816 5816 5816 5815 5815 5815 5814 5814 5814 5813 5813 5812 5812 5812 5812
5831 5829 5827 5826 5825 5823 5822 5821 5821 5820 5819 5819 5818 5818 5817 5817 5816 5816 5815 5815 5814 5814 5813 5813 5812 5811 5811 5810 5810 5810 5810 5809 5809 5809 5808 5808 5808 5807 5807 5807 5807 5807 5807
5824 5822 5821 5819 5818 5816 5815 5814 5814 5813 5812 5811 5811 5811 5810 5810 5809 5808 5808 5808 5807 5806 5805 5805 5805 5804 5804 5804 5804 5804 5803 5803 5802 5802 5802 5802 5801 5801 5801 5801 5801 5801 5801
5818 5816 5814 5812 5811 5810 5809 5807 5806 5805 5805 5804 5804 5803 5803 5802 5802 5801 5801 5800 5800 5799 5798 5798 5798 5797 5797 5797 5797 5797 5796 5796 5796 5796 5795 5795 5795 5795 5795 5795 5795 5795 5795
5811 5809 5808 5806 5804 5803 5802 5801 5799 5798 5797 5797 5796 5796 5796 5795 5795 5794 5794 5793 5793 5792 5791 5791 5790 5790 5790 5790 5790 5790 5789 5790 5790 5790 5789 5789 5789 5789 5789 5789 5789 5789 5789
5805 5803 5801 5799 5798 5796 5795 5794 5792 5791 5790 5790 5789 5789 5788 5788 5787 5787 5786 5786 5785 5784 5784 5783 5782 5782 5782 5782 5783 5782 5782 5782 5783 5783 5782 5782 5782 5782 5782 5783 5783 5783 5783
5799 5797 5795 5793 5791 5790 5788 5787 5786 5784 5783 5783 5782 5781 5781 5781 5780 5779 5779 5778 5777 5776 5776 5775 5774 5774 5773 5773 5774 5774 5775 5775 5775 5775 5775 5775 5775 5775 5776 5776 5776 5776 5777
5792 5790 5788 5786 5784 5783 5781 5780 5779 5778 5777 5776 5775 5774 5774 5773 5773 5772 5771 5770 5769 5768 5767 5767 5766 5765 5765 5765 5765 5766 5766 5767 5767 5767 5768 5768 5768 5768 5769 5769 5769 5770 5770
5785 5783 5781 5779 5777 5776 5774 5773 5772 5771 5770 5769 5768 5767 5767 5766 5765 5764 5763 5762 5762 5760 5760 5759 5759 5758 5758 5757 5758 5758 5758 5759 5759 5760 5760 5760 5761 5761 5762 5762 5762 5763 5763